Location: Emblem
(62.4273°N, 6.4710°E)
Time: 07:21:38
(UTC+02:00)

Transit 2A - Pass Details

Date: 12 March 2024
Orbit: 596 x 956 km, 66.7° (Epoch: 24 April)

Event Time Altitude Azimuth Distance (km) Brightness Sun altitude
Rises 00:05:45 0° 305° (NW) 2,968 9.7 -30.4°
Reaches altitude 10° 00:07:59 10° 301° (WNW) 2,096 8.7 -30.4°
Enters shadow 00:10:07 26° 291° (WNW) 1,331 7.4 -30.5°
